START_TIME,STEP,MOV.,P11,t_acc.,P23,t_acc.,P27,t_acc.,A4,t_acc.
1979-07-04 18:00:23.890 ,0,1,2.,4.8,1.,4.8,0.,4.8,0.,4.8
1979-07-04 18:00:28.690 ,0,1,2.,4.8,0.,4.8,0.,4.8,0.,4.8
1979-07-04 18:00:33.490 ,0,1,0.,4.8,0.,4.8,0.,4.8,0.,4.8
1979-07-04 18:00:38.290 ,0,1,1.,4.8,0.,4.8,0.,4.8,0.,4.8
1979-07-04 18:00:43.090 ,0,1,3.,4.8,0.,4.8,0.,4.8,0.,4.8
1979-07-04 18:00:47.890 ,4,1,2.,4.8,0.,4.8,0.,4.8,0.,4.8
1979-07-04 18:00:52.690 ,4,1,3.,4.8,0.,4.8,1.,4.8,0.,4.8
1979-07-04 18:00:57.490 ,4,1,3.,4.8,0.,4.8,0.,4.8,0.,4.8
1979-07-04 18:01:02.290 ,4,1,4.,4.8,1.,4.8,0.,4.8,0.,4.8
1979-07-04 18:01:07.090 ,4,1,1.,4.8,0.,4.8,0.,4.8,0.,4.8
1979-07-04 18:01:11.890 ,7,1,2.,4.8,0.,4.8,0.,4.8,0.,4.8
1979-07-04 18:01:16.690 ,7,1,0.,4.8,0.,4.8,0.,4.8,0.,4.8
1979-07-04 18:01:21.490 ,7,1,2.,4.8,0.,4.8,0.,4.8,0.,4.8
1979-07-04 18:01:26.290 ,7,1,1.,4.8,0.,4.8,0.,4.8,0.,4.8
1979-07-04 18:01:31.090 ,7,1,0.,4.8,0.,4.8,0.,4.8,0.,4.8
1979-07-04 18:01:35.890 ,3,1,0.,4.8,1.,4.8,0.,4.8,0.,4.8
1979-07-04 18:01:40.690 ,3,1,3.,4.8,0.,4.8,1.,4.8,0.,4.8
1979-07-04 18:01:45.490 ,3,1,2.,4.8,0.,4.8,0.,4.8,0.,4.8
1979-07-04 18:01:50.290 ,3,1,1.,4.8,0.,4.8,0.,4.8,0.,4.8
1979-07-04 18:01:55.090 ,3,1,1.,4.8,0.,4.8,0.,4.8,0.,4.8
1979-07-04 18:01:59.890 ,0,1,1.,4.8,0.,4.8,0.,4.8,0.,4.8
1979-07-04 18:02:04.690 ,0,1,0.,4.8,0.,4.8,0.,4.8,0.,4.8
1979-07-04 18:02:09.490 ,0,1,0.,4.8,0.,4.8,0.,4.8,0.,4.8
1979-07-04 18:02:14.290 ,0,1,3.,4.8,0.,4.8,0.,4.8,0.,4.8
1979-07-04 18:02:19.090 ,0,1,2.,4.8,0.,4.8,0.,4.8,0.,4.8
1979-07-04 18:02:23.890 ,4,1,0.,4.8,0.,4.8,0.,4.8,0.,4.8
1979-07-04 18:02:28.690 ,4,1,3.,4.8,0.,4.8,0.,4.8,0.,4.8
1979-07-04 18:02:33.490 ,4,1,1.,4.8,0.,4.8,0.,4.8,0.,4.8
1979-07-04 18:02:38.290 ,4,1,0.,4.8,0.,4.8,0.,4.8,0.,4.8
1979-07-04 18:02:43.090 ,4,1,0.,4.8,0.,4.8,0.,4.8,0.,4.8
1979-07-04 18:02:47.890 ,7,1,2.,4.8,0.,4.8,0.,4.8,0.,4.8
1979-07-04 18:02:52.690 ,7,1,1.,4.8,0.,4.8,0.,4.8,0.,4.8
1979-07-04 18:02:57.490 ,7,1,5.,4.8,0.,4.8,0.,4.8,0.,4.8
1979-07-04 18:03:02.290 ,7,1,2.,4.8,0.,4.8,1.,4.8,0.,4.8
1979-07-04 18:03:07.090 ,7,1,1.,4.8,0.,4.8,0.,4.8,0.,4.8
1979-07-04 18:03:11.890 ,3,1,1.,4.8,0.,4.8,0.,4.8,0.,4.8
1979-07-04 18:03:16.690 ,3,1,1.,4.8,0.,4.8,1.,4.8,0.,4.8
1979-07-04 18:03:21.490 ,3,1,1.,4.8,1.,4.8,0.,4.8,0.,4.8
1979-07-04 18:03:26.290 ,3,1,1.,4.8,0.,4.8,0.,4.8,0.,4.8
1979-07-04 18:03:31.090 ,3,1,1.,4.8,0.,4.8,0.,4.8,0.,4.8
1979-07-04 18:03:35.890 ,0,1,2.,4.8,0.,4.8,0.,4.8,0.,4.8
1979-07-04 18:03:40.690 ,0,1,3.,4.8,0.,4.8,0.,4.8,0.,4.8
1979-07-04 18:03:45.490 ,0,1,0.,4.8,0.,4.8,0.,4.8,0.,4.8
1979-07-04 18:03:50.290 ,0,1,3.,4.8,0.,4.8,0.,4.8,0.,4.8
1979-07-04 18:03:55.090 ,0,1,0.,4.8,0.,4.8,0.,4.8,1.,4.8
1979-07-04 18:03:59.890 ,4,1,3.,4.8,2.,4.8,0.,4.8,0.,4.8
1979-07-04 18:04:04.690 ,4,1,2.,4.8,0.,4.8,0.,4.8,0.,4.8
1979-07-04 18:04:09.490 ,4,1,0.,4.8,0.,4.8,0.,4.8,0.,4.8
1979-07-04 18:04:14.290 ,4,1,1.,4.8,0.,4.8,0.,4.8,0.,4.8
1979-07-04 18:04:19.090 ,4,1,2.,4.8,0.,4.8,0.,4.8,0.,4.8
1979-07-04 18:04:23.890 ,7,1,3.,4.8,0.,4.8,0.,4.8,0.,4.8
1979-07-04 18:04:28.690 ,7,1,2.,4.8,0.,4.8,0.,4.8,0.,4.8
1979-07-04 18:04:33.490 ,7,1,0.,4.8,0.,4.8,1.,4.8,0.,4.8
1979-07-04 18:04:38.290 ,7,1,0.,4.8,0.,4.8,0.,4.8,0.,4.8
1979-07-04 18:04:43.090 ,7,1,4.,4.8,0.,4.8,0.,4.8,0.,4.8
1979-07-04 18:04:47.890 ,3,1,2.,4.8,0.,4.8,0.,4.8,0.,4.8
1979-07-04 18:04:52.690 ,3,1,1.,4.8,0.,4.8,0.,4.8,0.,4.8
1979-07-04 18:04:57.490 ,3,1,1.,4.8,0.,4.8,0.,4.8,0.,4.8
1979-07-04 18:05:02.290 ,3,1,2.,4.8,0.,4.8,0.,4.8,0.,4.8
1979-07-04 18:05:07.090 ,3,1,0.,4.8,0.,4.8,0.,4.8,0.,4.8
1979-07-04 18:05:11.890 ,0,1,1.,4.8,0.,4.8,1.,4.8,0.,4.8
1979-07-04 18:05:16.690 ,0,1,1.,4.8,0.,4.8,1.,4.8,0.,4.8
1979-07-04 18:05:21.490 ,0,1,1.,4.8,0.,4.8,0.,4.8,0.,4.8
1979-07-04 18:05:26.290 ,0,1,1.,4.8,0.,4.8,0.,4.8,0.,4.8
1979-07-04 18:05:31.090 ,0,1,1.,4.8,0.,4.8,0.,4.8,0.,4.8
1979-07-04 18:05:35.890 ,0,0,2.,4.8,0.,4.8,0.,4.8,0.,4.8
1979-07-04 18:05:40.690 ,0,0,1.,4.8,1.,4.8,0.,4.8,0.,4.8
1979-07-04 18:05:45.490 ,0,0,0.,4.8,0.,4.8,0.,4.8,0.,4.8
1979-07-04 18:05:50.290 ,0,0,1.,4.8,0.,4.8,0.,4.8,0.,4.8
1979-07-04 18:05:55.090 ,0,0,2.,4.8,0.,4.8,2.,4.8,0.,4.8
1979-07-04 18:05:59.890 ,0,0,0.,4.8,0.,4.8,0.,4.8,0.,4.8
1979-07-04 18:06:04.690 ,0,0,1.,4.8,0.,4.8,1.,4.8,0.,4.8
1979-07-04 18:06:09.490 ,0,0,1.,4.8,0.,4.8,0.,4.8,0.,4.8
1979-07-04 18:06:14.290 ,0,0,0.,4.8,0.,4.8,0.,4.8,0.,4.8
1979-07-04 18:06:19.090 ,0,0,1.,4.8,1.,4.8,0.,4.8,0.,4.8
1979-07-04 18:06:23.890 ,5,0,0.,4.8,0.,4.8,0.,4.8,0.,4.8
1979-07-04 18:06:28.690 ,5,0,1.,4.8,0.,4.8,0.,4.8,0.,4.8
1979-07-04 18:06:33.490 ,5,0,3.,4.8,0.,4.8,0.,4.8,0.,4.8
1979-07-04 18:06:38.290 ,5,0,1.,4.8,0.,4.8,0.,4.8,0.,4.8
1979-07-04 18:06:43.090 ,5,0,3.,4.8,0.,4.8,0.,4.8,0.,4.8
1979-07-04 18:06:47.890 ,5,0,0.,4.8,1.,4.8,0.,4.8,0.,4.8
1979-07-04 18:06:52.690 ,5,0,0.,4.8,0.,4.8,0.,4.8,0.,4.8
1979-07-04 18:06:57.490 ,5,0,0.,4.8,0.,4.8,1.,4.8,0.,4.8
1979-07-04 18:07:02.290 ,5,0,1.,4.8,0.,4.8,0.,4.8,0.,4.8
1979-07-04 18:07:07.090 ,5,0,4.,4.8,0.,4.8,1.,4.8,0.,4.8
1979-07-04 18:07:11.890 ,4,0,1.,4.8,0.,4.8,0.,4.8,0.,4.8
1979-07-04 18:07:16.690 ,4,0,0.,4.8,0.,4.8,0.,4.8,0.,4.8
1979-07-04 18:07:21.490 ,4,0,0.,4.8,0.,4.8,0.,4.8,0.,4.8
1979-07-04 18:07:26.290 ,4,0,2.,4.8,0.,4.8,0.,4.8,0.,4.8
1979-07-04 18:07:31.090 ,4,0,0.,4.8,0.,4.8,0.,4.8,0.,4.8
1979-07-04 18:07:35.890 ,4,0,0.,4.8,0.,4.8,0.,4.8,0.,4.8
1979-07-04 18:07:40.690 ,4,0,1.,4.8,0.,4.8,0.,4.8,0.,4.8
1979-07-04 18:07:45.490 ,4,0,2.,4.8,0.,4.8,0.,4.8,0.,4.8
1979-07-04 18:07:50.290 ,4,0,1.,4.8,0.,4.8,0.,4.8,0.,4.8
1979-07-04 18:07:55.090 ,4,0,1.,4.8,0.,4.8,0.,4.8,0.,4.8
1979-07-04 18:07:59.890 ,3,0,1.,4.8,0.,4.8,0.,4.8,0.,4.8
1979-07-04 18:08:04.690 ,3,0,1.,4.8,0.,4.8,0.,4.8,0.,4.8
1979-07-04 18:08:09.490 ,3,0,2.,4.8,0.,4.8,0.,4.8,0.,4.8
1979-07-04 18:08:14.290 ,3,0,1.,4.8,0.,4.8,0.,4.8,0.,4.8
1979-07-04 18:08:19.090 ,3,0,3.,4.8,0.,4.8,1.,4.8,0.,4.8
1979-07-04 18:08:23.890 ,3,0,0.,4.8,0.,4.8,0.,4.8,0.,4.8
1979-07-04 18:08:28.690 ,3,0,3.,4.8,0.,4.8,0.,4.8,0.,4.8
1979-07-04 18:08:33.490 ,3,0,2.,4.8,0.,4.8,0.,4.8,0.,4.8
1979-07-04 18:08:38.290 ,3,0,1.,4.8,0.,4.8,0.,4.8,0.,4.8
1979-07-04 18:08:43.090 ,3,0,3.,4.8,0.,4.8,1.,4.8,0.,4.8
1979-07-04 18:08:47.890 ,2,0,3.,4.8,0.,4.8,0.,4.8,0.,4.8
1979-07-04 18:08:52.690 ,2,0,2.,4.8,0.,4.8,0.,4.8,0.,4.8
1979-07-04 18:08:57.490 ,2,0,2.,4.8,0.,4.8,0.,4.8,0.,4.8
1979-07-04 18:09:02.290 ,2,0,0.,4.8,0.,4.8,0.,4.8,0.,4.8
1979-07-04 18:09:07.090 ,2,0,0.,4.8,0.,4.8,0.,4.8,0.,4.8
1979-07-04 18:09:11.890 ,2,0,1.,4.8,0.,4.8,0.,4.8,0.,4.8
1979-07-04 18:09:16.690 ,2,0,1.,4.8,0.,4.8,0.,4.8,0.,4.8
1979-07-04 18:09:21.490 ,2,0,3.,4.8,0.,4.8,0.,4.8,0.,4.8
1979-07-04 18:09:26.290 ,2,0,1.,4.8,0.,4.8,0.,4.8,0.,4.8
1979-07-04 18:09:31.090 ,2,0,2.,4.8,0.,4.8,0.,4.8,0.,4.8
1979-07-04 18:09:35.890 ,1,0,2.,4.8,0.,4.8,0.,4.8,0.,4.8
1979-07-04 18:09:40.690 ,1,0,1.,4.8,0.,4.8,0.,4.8,0.,4.8
1979-07-04 18:09:45.490 ,1,0,0.,4.8,0.,4.8,0.,4.8,0.,4.8
1979-07-04 18:09:50.290 ,1,0,1.,4.8,0.,4.8,0.,4.8,0.,4.8
1979-07-04 18:09:55.090 ,1,0,1.,4.8,0.,4.8,0.,4.8,0.,4.8
1979-07-04 18:09:59.890 ,1,0,0.,4.8,0.,4.8,0.,4.8,0.,4.8
1979-07-04 18:10:04.690 ,1,0,1.,4.8,0.,4.8,0.,4.8,0.,4.8
1979-07-04 18:10:09.490 ,1,0,1.,4.8,0.,4.8,0.,4.8,0.,4.8
1979-07-04 18:10:14.290 ,1,0,2.,4.8,0.,4.8,0.,4.8,1.,4.8
1979-07-04 18:10:19.090 ,1,0,1.,4.8,0.,4.8,1.,4.8,0.,4.8
1979-07-04 18:10:23.890 ,0,0,0.,4.8,0.,4.8,0.,4.8,0.,4.8
1979-07-04 18:10:28.690 ,0,0,0.,4.8,0.,4.8,0.,4.8,0.,4.8
1979-07-04 18:10:33.490 ,0,0,4.,4.8,0.,4.8,0.,4.8,0.,4.8
1979-07-04 18:10:38.290 ,0,0,1.,4.8,0.,4.8,0.,4.8,0.,4.8
1979-07-04 18:10:43.090 ,0,0,2.,4.8,0.,4.8,0.,4.8,0.,4.8
1979-07-04 18:10:47.890 ,0,0,1.,4.8,0.,4.8,0.,4.8,0.,4.8
1979-07-04 18:10:52.690 ,0,0,1.,4.8,0.,4.8,0.,4.8,0.,4.8
1979-07-04 18:10:57.490 ,0,0,2.,4.8,0.,4.8,0.,4.8,0.,4.8
1979-07-04 18:11:02.290 ,0,0,1.,4.8,0.,4.8,0.,4.8,0.,4.8
1979-07-04 18:11:07.090 ,0,0,2.,4.8,0.,4.8,0.,4.8,0.,4.8
1979-07-04 18:11:11.890 ,0,0,1.,4.8,0.,4.8,0.,4.8,0.,4.8
1979-07-04 18:11:16.690 ,0,0,1.,4.8,0.,4.8,0.,4.8,0.,4.8
1979-07-04 18:11:21.490 ,0,0,2.,4.8,0.,4.8,1.,4.8,0.,4.8
1979-07-04 18:11:26.290 ,0,0,1.,4.8,0.,4.8,0.,4.8,1.,4.8
1979-07-04 18:11:31.090 ,0,0,2.,4.8,0.,4.8,0.,4.8,0.,4.8
1979-07-04 18:11:35.890 ,0,0,0.,4.8,0.,4.8,0.,4.8,0.,4.8
1979-07-04 18:11:40.690 ,0,0,1.,4.8,0.,4.8,1.,4.8,0.,4.8
1979-07-04 18:11:45.490 ,0,0,1.,4.8,0.,4.8,0.,4.8,0.,4.8
1979-07-04 18:11:50.290 ,0,0,1.,4.8,0.,4.8,0.,4.8,0.,4.8
1979-07-04 18:11:55.090 ,0,0,3.,4.8,0.,4.8,0.,4.8,0.,4.8
1979-07-04 18:11:59.890 ,1,0,1.,4.8,0.,4.8,0.,4.8,0.,4.8
1979-07-04 18:12:04.690 ,1,0,0.,4.8,0.,4.8,0.,4.8,0.,4.8
1979-07-04 18:12:09.490 ,1,0,1.,4.8,0.,4.8,0.,4.8,0.,4.8
1979-07-04 18:12:14.290 ,1,0,1.,4.8,0.,4.8,0.,4.8,0.,4.8
1979-07-04 18:12:19.090 ,1,0,3.,4.8,0.,4.8,0.,4.8,0.,4.8
1979-07-04 18:12:23.890 ,1,0,2.,4.8,0.,4.8,0.,4.8,0.,4.8
1979-07-04 18:12:28.690 ,1,0,1.,4.8,0.,4.8,1.,4.8,0.,4.8
1979-07-04 18:12:33.490 ,1,0,0.,4.8,0.,4.8,0.,4.8,0.,4.8
1979-07-04 18:12:38.290 ,1,0,2.,4.8,0.,4.8,0.,4.8,0.,4.8
1979-07-04 18:12:43.090 ,1,0,1.,4.8,0.,4.8,0.,4.8,0.,4.8
1979-07-04 18:12:47.890 ,2,0,2.,4.8,0.,4.8,0.,4.8,0.,4.8
1979-07-04 18:12:52.690 ,2,0,1.,4.8,0.,4.8,0.,4.8,0.,4.8
1979-07-04 18:12:57.490 ,2,0,1.,4.8,0.,4.8,0.,4.8,0.,4.8
1979-07-04 18:13:02.290 ,2,0,0.,4.8,1.,4.8,0.,4.8,0.,4.8
1979-07-04 18:13:07.090 ,2,0,0.,4.8,0.,4.8,0.,4.8,0.,4.8
1979-07-04 18:13:11.890 ,2,0,1.,4.8,0.,4.8,0.,4.8,0.,4.8
1979-07-04 18:13:16.690 ,2,0,3.,4.8,0.,4.8,1.,4.8,0.,4.8
1979-07-04 18:13:21.490 ,2,0,1.,4.8,0.,4.8,0.,4.8,0.,4.8
1979-07-04 18:13:26.290 ,2,0,2.,4.8,0.,4.8,0.,4.8,0.,4.8
1979-07-04 18:13:31.090 ,2,0,1.,4.8,0.,4.8,0.,4.8,0.,4.8
1979-07-04 18:13:35.890 ,3,0,1.,4.8,0.,4.8,0.,4.8,0.,4.8
1979-07-04 18:13:40.690 ,3,0,1.,4.8,0.,4.8,0.,4.8,0.,4.8
1979-07-04 18:13:45.490 ,3,0,1.,4.8,0.,4.8,0.,4.8,0.,4.8
1979-07-04 18:13:50.290 ,3,0,3.,4.8,0.,4.8,0.,4.8,0.,4.8
1979-07-04 18:13:55.090 ,3,0,0.,4.8,0.,4.8,0.,4.8,1.,4.8
1979-07-04 18:13:59.890 ,3,0,0.,4.8,0.,4.8,1.,4.8,0.,4.8
1979-07-04 18:14:04.690 ,3,0,0.,4.8,0.,4.8,0.,4.8,0.,4.8
1979-07-04 18:14:09.490 ,3,0,3.,4.8,0.,4.8,0.,4.8,0.,4.8
1979-07-04 18:14:14.290 ,3,0,0.,4.8,0.,4.8,0.,4.8,0.,4.8
1979-07-04 18:14:19.090 ,3,0,2.,4.8,0.,4.8,0.,4.8,0.,4.8
1979-07-04 18:14:23.890 ,4,0,0.,4.8,0.,4.8,0.,4.8,0.,4.8
1979-07-04 18:14:28.690 ,4,0,1.,4.8,0.,4.8,0.,4.8,0.,4.8
1979-07-04 18:14:33.490 ,4,0,0.,4.8,0.,4.8,0.,4.8,0.,4.8
1979-07-04 18:14:38.290 ,4,0,3.,4.8,0.,4.8,0.,4.8,0.,4.8
1979-07-04 18:14:43.090 ,4,0,2.,4.8,0.,4.8,0.,4.8,0.,4.8
1979-07-04 18:14:47.890 ,4,0,1.,4.8,1.,4.8,0.,4.8,0.,4.8
1979-07-04 18:14:52.690 ,4,0,0.,4.8,0.,4.8,0.,4.8,0.,4.8
1979-07-04 18:14:57.490 ,4,0,3.,4.8,0.,4.8,1.,4.8,0.,4.8
1979-07-04 18:15:02.290 ,4,0,1.,4.8,0.,4.8,0.,4.8,0.,4.8
1979-07-04 18:15:07.090 ,4,0,2.,4.8,0.,4.8,0.,4.8,0.,4.8
1979-07-04 18:15:11.890 ,5,0,1.,4.8,0.,4.8,0.,4.8,0.,4.8
1979-07-04 18:15:16.690 ,5,0,3.,4.8,0.,4.8,0.,4.8,0.,4.8
1979-07-04 18:15:21.490 ,5,0,2.,4.8,0.,4.8,0.,4.8,0.,4.8
1979-07-04 18:15:26.290 ,5,0,2.,4.8,0.,4.8,0.,4.8,0.,4.8
1979-07-04 18:15:31.090 ,5,0,0.,4.8,0.,4.8,0.,4.8,0.,4.8
1979-07-04 18:15:35.890 ,5,0,2.,4.8,0.,4.8,0.,4.8,0.,4.8
1979-07-04 18:15:40.690 ,5,0,1.,4.8,0.,4.8,1.,4.8,0.,4.8
1979-07-04 18:15:45.490 ,5,0,0.,4.8,1.,4.8,0.,4.8,0.,4.8
1979-07-04 18:15:50.290 ,5,0,1.,4.8,1.,4.8,0.,4.8,0.,4.8
1979-07-04 18:15:55.090 ,5,0,0.,4.8,0.,4.8,0.,4.8,0.,4.8
1979-07-04 18:15:59.890 ,6,0,1.,4.8,0.,4.8,0.,4.8,0.,4.8
1979-07-04 18:16:04.690 ,6,0,2.,4.8,0.,4.8,0.,4.8,0.,4.8
1979-07-04 18:16:09.490 ,6,0,1.,4.8,0.,4.8,0.,4.8,0.,4.8
1979-07-04 18:16:14.290 ,6,0,1.,4.8,0.,4.8,1.,4.8,0.,4.8
1979-07-04 18:16:19.090 ,6,0,1.,4.8,0.,4.8,0.,4.8,0.,4.8
1979-07-04 18:16:23.890 ,6,0,1.,4.8,0.,4.8,0.,4.8,0.,4.8
1979-07-04 18:16:28.690 ,6,0,1.,4.8,0.,4.8,0.,4.8,0.,4.8
1979-07-04 18:16:33.490 ,6,0,1.,4.8,0.,4.8,0.,4.8,0.,4.8
1979-07-04 18:16:38.290 ,6,0,1.,4.8,0.,4.8,1.,4.8,0.,4.8
1979-07-04 18:16:43.090 ,6,0,0.,4.8,0.,4.8,0.,4.8,0.,4.8
1979-07-04 18:16:47.890 ,7,0,0.,4.8,0.,4.8,1.,4.8,0.,4.8
1979-07-04 18:16:52.690 ,7,0,0.,4.8,0.,4.8,0.,4.8,0.,4.8
1979-07-04 18:16:57.490 ,7,0,1.,4.8,0.,4.8,0.,4.8,0.,4.8
1979-07-04 18:17:02.290 ,7,0,4.,4.8,0.,4.8,0.,4.8,0.,4.8
1979-07-04 18:17:07.090 ,7,0,1.,4.8,0.,4.8,0.,4.8,0.,4.8
1979-07-04 18:17:11.890 ,7,0,1.,4.8,0.,4.8,0.,4.8,0.,4.8
1979-07-04 18:17:16.690 ,7,0,2.,4.8,0.,4.8,0.,4.8,0.,4.8
1979-07-04 18:17:21.490 ,7,0,0.,4.8,0.,4.8,0.,4.8,0.,4.8
1979-07-04 18:17:26.290 ,7,0,1.,4.8,0.,4.8,0.,4.8,0.,4.8
1979-07-04 18:17:31.090 ,7,0,0.,4.8,0.,4.8,1.,4.8,0.,4.8
1979-07-04 18:17:35.890 ,7,0,1.,4.8,0.,4.8,0.,4.8,0.,4.8
1979-07-04 18:17:40.690 ,7,0,0.,4.8,0.,4.8,0.,4.8,0.,4.8
1979-07-04 18:17:45.490 ,7,0,2.,4.8,0.,4.8,0.,4.8,0.,4.8
1979-07-04 18:17:50.290 ,7,0,0.,4.8,0.,4.8,0.,4.8,0.,4.8
1979-07-04 18:17:55.090 ,7,0,1.,4.8,0.,4.8,0.,4.8,0.,4.8
1979-07-04 18:17:59.890 ,7,0,1.,4.8,0.,4.8,0.,4.8,0.,4.8
1979-07-04 18:18:04.690 ,7,0,3.,4.8,0.,4.8,0.,4.8,0.,4.8
1979-07-04 18:18:09.490 ,7,0,3.,4.8,0.,4.8,0.,4.8,0.,4.8
1979-07-04 18:18:14.290 ,7,0,1.,4.8,0.,4.8,0.,4.8,0.,4.8
1979-07-04 18:18:19.090 ,7,0,0.,4.8,0.,4.8,0.,4.8,0.,4.8
1979-07-04 18:18:23.890 ,6,0,0.,4.8,0.,4.8,0.,4.8,0.,4.8
1979-07-04 18:18:28.690 ,6,0,0.,4.8,0.,4.8,0.,4.8,0.,4.8
1979-07-04 18:18:33.480 ,6,0,2.,4.8,0.,4.8,0.,4.8,0.,4.8
1979-07-04 18:18:38.290 ,6,0,2.,4.8,0.,4.8,0.,4.8,0.,4.8
1979-07-04 18:18:43.090 ,6,0,1.,4.8,0.,4.8,0.,4.8,0.,4.8
1979-07-04 18:18:47.890 ,6,0,2.,4.8,0.,4.8,0.,4.8,0.,4.8
1979-07-04 18:18:52.690 ,6,0,1.,4.8,0.,4.8,0.,4.8,0.,4.8
1979-07-04 18:18:57.480 ,6,0,2.,4.8,0.,4.8,0.,4.8,0.,4.8
1979-07-04 18:19:02.290 ,6,0,0.,4.8,0.,4.8,0.,4.8,0.,4.8
1979-07-04 18:19:07.090 ,6,0,0.,4.8,0.,4.8,0.,4.8,0.,4.8
1979-07-04 18:19:11.890 ,5,0,0.,4.8,0.,4.8,0.,4.8,0.,4.8
1979-07-04 18:19:16.690 ,5,0,1.,4.8,0.,4.8,0.,4.8,0.,4.8
1979-07-04 18:19:21.480 ,5,0,1.,4.8,0.,4.8,0.,4.8,0.,4.8
1979-07-04 18:19:26.290 ,5,0,2.,4.8,0.,4.8,0.,4.8,0.,4.8
1979-07-04 18:19:31.090 ,5,0,0.,4.8,1.,4.8,0.,4.8,0.,4.8
1979-07-04 18:19:35.890 ,5,0,1.,4.8,0.,4.8,0.,4.8,0.,4.8
1979-07-04 18:19:40.690 ,5,0,1.,4.8,0.,4.8,0.,4.8,0.,4.8
1979-07-04 18:19:45.480 ,5,0,1.,4.8,1.,4.8,0.,4.8,0.,4.8
1979-07-04 18:19:50.290 ,5,0,1.,4.8,0.,4.8,0.,4.8,0.,4.8
1979-07-04 18:19:55.090 ,5,0,1.,4.8,0.,4.8,0.,4.8,0.,4.8
1979-07-04 18:19:59.890 ,4,0,2.,4.8,0.,4.8,0.,4.8,0.,4.8
1979-07-04 18:20:04.690 ,4,0,1.,4.8,0.,4.8,0.,4.8,0.,4.8
1979-07-04 18:20:09.480 ,4,0,1.,4.8,0.,4.8,0.,4.8,0.,4.8
1979-07-04 18:20:14.290 ,4,0,1.,4.8,0.,4.8,0.,4.8,0.,4.8
1979-07-04 18:20:19.090 ,4,0,1.,4.8,0.,4.8,0.,4.8,0.,4.8
1979-07-04 18:20:23.890 ,4,0,0.,4.8,0.,4.8,0.,4.8,0.,4.8
1979-07-04 18:20:28.690 ,4,0,0.,4.8,0.,4.8,0.,4.8,0.,4.8
1979-07-04 18:20:33.480 ,4,0,0.,4.8,0.,4.8,2.,4.8,0.,4.8
1979-07-04 18:20:38.290 ,4,0,4.,4.8,0.,4.8,0.,4.8,0.,4.8
1979-07-04 18:20:43.090 ,4,0,2.,4.8,0.,4.8,0.,4.8,0.,4.8
1979-07-04 18:20:47.890 ,3,0,0.,4.8,0.,4.8,0.,4.8,0.,4.8
1979-07-04 18:20:52.690 ,3,0,0.,4.8,0.,4.8,0.,4.8,0.,4.8
1979-07-04 18:20:57.480 ,3,0,2.,4.8,0.,4.8,0.,4.8,0.,4.8
1979-07-04 18:21:02.290 ,3,0,1.,4.8,0.,4.8,0.,4.8,0.,4.8
1979-07-04 18:21:07.090 ,3,0,0.,4.8,0.,4.8,0.,4.8,0.,4.8
1979-07-04 18:21:11.890 ,3,0,0.,4.8,0.,4.8,0.,4.8,0.,4.8
1979-07-04 18:21:16.690 ,3,0,1.,4.8,0.,4.8,0.,4.8,0.,4.8
1979-07-04 18:21:21.480 ,3,0,0.,4.8,0.,4.8,0.,4.8,0.,4.8
1979-07-04 18:21:26.290 ,3,0,1.,4.8,0.,4.8,0.,4.8,0.,4.8
1979-07-04 18:21:31.090 ,3,0,2.,4.8,0.,4.8,0.,4.8,0.,4.8
1979-07-04 18:21:35.890 ,2,0,0.,4.8,0.,4.8,0.,4.8,0.,4.8
1979-07-04 18:21:40.690 ,2,0,3.,4.8,1.,4.8,0.,4.8,0.,4.8
1979-07-04 18:21:45.480 ,2,0,2.,4.8,0.,4.8,0.,4.8,0.,4.8
1979-07-04 18:21:50.290 ,2,0,1.,4.8,0.,4.8,0.,4.8,0.,4.8
1979-07-04 18:21:55.090 ,2,0,1.,4.8,0.,4.8,0.,4.8,0.,4.8
1979-07-04 18:21:59.890 ,2,0,1.,4.8,0.,4.8,0.,4.8,0.,4.8
1979-07-04 18:22:04.690 ,2,0,2.,4.8,0.,4.8,1.,4.8,0.,4.8
1979-07-04 18:22:09.480 ,2,0,1.,4.8,0.,4.8,0.,4.8,0.,4.8
1979-07-04 18:22:14.290 ,2,0,2.,4.8,0.,4.8,0.,4.8,0.,4.8
1979-07-04 18:22:19.090 ,2,0,0.,4.8,0.,4.8,0.,4.8,0.,4.8
1979-07-04 18:22:23.890 ,1,0,0.,4.8,0.,4.8,0.,4.8,0.,4.8
1979-07-04 18:22:28.690 ,1,0,1.,4.8,0.,4.8,0.,4.8,1.,4.8
1979-07-04 18:22:33.480 ,1,0,2.,4.8,0.,4.8,0.,4.8,0.,4.8
1979-07-04 18:22:38.290 ,1,0,1.,4.8,0.,4.8,0.,4.8,1.,4.8
1979-07-04 18:22:43.090 ,1,0,0.,4.8,0.,4.8,0.,4.8,0.,4.8
1979-07-04 18:22:47.890 ,1,0,1.,4.8,1.,4.8,0.,4.8,0.,4.8
1979-07-04 18:22:52.690 ,1,0,1.,4.8,0.,4.8,0.,4.8,0.,4.8
1979-07-04 18:22:57.480 ,1,0,0.,4.8,0.,4.8,0.,4.8,0.,4.8
1979-07-04 18:23:02.290 ,1,0,3.,4.8,0.,4.8,0.,4.8,0.,4.8
1979-07-04 18:23:07.090 ,1,0,3.,4.8,1.,4.8,0.,4.8,0.,4.8
1979-07-04 18:23:11.890 ,0,0,0.,4.8,0.,4.8,0.,4.8,0.,4.8
1979-07-04 18:23:16.690 ,0,0,2.,4.8,0.,4.8,0.,4.8,0.,4.8
1979-07-04 18:23:21.480 ,0,0,0.,4.8,0.,4.8,0.,4.8,0.,4.8
1979-07-04 18:23:26.290 ,0,0,2.,4.8,0.,4.8,0.,4.8,1.,4.8
1979-07-04 18:23:31.090 ,0,0,0.,4.8,0.,4.8,0.,4.8,0.,4.8
1979-07-04 18:23:35.890 ,0,0,1.,4.8,0.,4.8,1.,4.8,0.,4.8
1979-07-04 18:23:40.690 ,0,0,1.,4.8,0.,4.8,0.,4.8,0.,4.8
1979-07-04 18:23:45.480 ,0,0,2.,4.8,0.,4.8,0.,4.8,0.,4.8
1979-07-04 18:23:50.290 ,0,0,0.,4.8,0.,4.8,0.,4.8,0.,4.8
1979-07-04 18:23:55.090 ,0,0,3.,4.8,0.,4.8,1.,4.8,0.,4.8
1979-07-04 18:23:59.890 ,0,0,1.,4.8,0.,4.8,0.,4.8,0.,4.8
1979-07-04 18:24:04.690 ,0,0,1.,4.8,0.,4.8,1.,4.8,0.,4.8
1979-07-04 18:24:09.480 ,0,0,1.,4.8,0.,4.8,0.,4.8,0.,4.8
1979-07-04 18:24:14.290 ,0,0,0.,4.8,0.,4.8,0.,4.8,0.,4.8
1979-07-04 18:24:19.090 ,0,0,3.,4.8,0.,4.8,0.,4.8,0.,4.8
1979-07-04 18:24:23.890 ,0,0,2.,4.8,0.,4.8,0.,4.8,0.,4.8
1979-07-04 18:24:28.690 ,0,0,2.,4.8,0.,4.8,0.,4.8,0.,4.8
1979-07-04 18:24:33.480 ,0,0,1.,4.8,0.,4.8,0.,4.8,0.,4.8
1979-07-04 18:24:38.290 ,0,0,3.,4.8,0.,4.8,0.,4.8,0.,4.8
1979-07-04 18:24:43.090 ,0,0,0.,4.8,0.,4.8,0.,4.8,0.,4.8
1979-07-04 18:24:47.890 ,1,0,2.,4.8,0.,4.8,0.,4.8,0.,4.8
1979-07-04 18:24:52.690 ,1,0,1.,4.8,0.,4.8,1.,4.8,0.,4.8
1979-07-04 18:24:57.480 ,1,0,0.,4.8,0.,4.8,0.,4.8,0.,4.8
1979-07-04 18:25:02.290 ,1,0,1.,4.8,0.,4.8,0.,4.8,0.,4.8
1979-07-04 18:25:07.090 ,1,0,2.,4.8,0.,4.8,0.,4.8,0.,4.8
1979-07-04 18:25:11.890 ,1,0,1.,4.8,0.,4.8,0.,4.8,0.,4.8
1979-07-04 18:25:16.690 ,1,0,1.,4.8,0.,4.8,0.,4.8,0.,4.8
1979-07-04 18:25:21.480 ,1,0,0.,4.8,0.,4.8,0.,4.8,0.,4.8
1979-07-04 18:25:26.290 ,1,0,0.,4.8,0.,4.8,0.,4.8,0.,4.8
1979-07-04 18:25:31.090 ,1,0,0.,4.8,0.,4.8,0.,4.8,0.,4.8
1979-07-04 18:25:35.890 ,2,0,1.,4.8,0.,4.8,1.,4.8,1.,4.8
1979-07-04 18:25:40.690 ,2,0,4.,4.8,0.,4.8,0.,4.8,0.,4.8
1979-07-04 18:25:45.480 ,2,0,0.,4.8,0.,4.8,0.,4.8,0.,4.8
1979-07-04 18:25:50.290 ,2,0,0.,4.8,0.,4.8,0.,4.8,0.,4.8
1979-07-04 18:25:55.090 ,2,0,2.,4.8,0.,4.8,0.,4.8,0.,4.8
1979-07-04 18:25:59.890 ,2,0,2.,4.8,0.,4.8,1.,4.8,0.,4.8
1979-07-04 18:26:04.690 ,2,0,3.,4.8,0.,4.8,0.,4.8,0.,4.8
1979-07-04 18:26:09.480 ,2,0,1.,4.8,1.,4.8,0.,4.8,0.,4.8
1979-07-04 18:26:14.290 ,2,0,2.,4.8,0.,4.8,0.,4.8,0.,4.8
1979-07-04 18:26:19.090 ,2,0,1.,4.8,0.,4.8,0.,4.8,0.,4.8
1979-07-04 18:26:23.890 ,3,0,2.,4.8,0.,4.8,1.,4.8,0.,4.8
1979-07-04 18:26:28.690 ,3,0,3.,4.8,0.,4.8,0.,4.8,0.,4.8
1979-07-04 18:26:33.480 ,3,0,1.,4.8,0.,4.8,0.,4.8,0.,4.8
1979-07-04 18:26:38.290 ,3,0,0.,4.8,0.,4.8,0.,4.8,0.,4.8
1979-07-04 18:26:43.090 ,3,0,1.,4.8,0.,4.8,0.,4.8,0.,4.8
1979-07-04 18:26:47.890 ,3,0,0.,4.8,1.,4.8,0.,4.8,0.,4.8
1979-07-04 18:26:52.690 ,3,0,1.,4.8,0.,4.8,0.,4.8,0.,4.8
1979-07-04 18:26:57.480 ,3,0,0.,4.8,0.,4.8,0.,4.8,0.,4.8
1979-07-04 18:27:02.290 ,3,0,1.,4.8,0.,4.8,0.,4.8,0.,4.8
1979-07-04 18:27:07.090 ,3,0,0.,4.8,0.,4.8,0.,4.8,0.,4.8
1979-07-04 18:27:11.890 ,4,0,1.,4.8,0.,4.8,1.,4.8,0.,4.8
1979-07-04 18:27:16.690 ,4,0,1.,4.8,0.,4.8,0.,4.8,0.,4.8
1979-07-04 18:27:21.480 ,4,0,1.,4.8,0.,4.8,0.,4.8,1.,4.8
1979-07-04 18:27:26.290 ,4,0,2.,4.8,0.,4.8,0.,4.8,0.,4.8
1979-07-04 18:27:31.090 ,4,0,1.,4.8,0.,4.8,0.,4.8,0.,4.8
1979-07-04 18:27:35.890 ,4,0,0.,4.8,0.,4.8,0.,4.8,0.,4.8
1979-07-04 18:27:40.690 ,4,0,1.,4.8,0.,4.8,0.,4.8,0.,4.8
1979-07-04 18:27:45.480 ,4,0,0.,4.8,0.,4.8,0.,4.8,0.,4.8
1979-07-04 18:27:50.290 ,4,0,1.,4.8,0.,4.8,0.,4.8,0.,4.8
1979-07-04 18:27:55.090 ,4,0,2.,4.8,0.,4.8,0.,4.8,0.,4.8
1979-07-04 18:27:59.890 ,5,0,0.,4.8,0.,4.8,0.,4.8,0.,4.8
1979-07-04 18:28:04.690 ,5,0,1.,4.8,0.,4.8,0.,4.8,0.,4.8
1979-07-04 18:28:09.480 ,5,0,2.,4.8,0.,4.8,1.,4.8,0.,4.8
1979-07-04 18:28:14.290 ,5,0,4.,4.8,0.,4.8,0.,4.8,0.,4.8
1979-07-04 18:28:19.090 ,5,0,2.,4.8,0.,4.8,0.,4.8,0.,4.8
1979-07-04 18:28:23.890 ,5,0,2.,4.8,0.,4.8,0.,4.8,0.,4.8
1979-07-04 18:28:28.690 ,5,0,4.,4.8,0.,4.8,0.,4.8,0.,4.8
1979-07-04 18:28:33.480 ,5,0,2.,4.8,0.,4.8,2.,4.8,0.,4.8
1979-07-04 18:28:38.290 ,5,0,0.,4.8,0.,4.8,0.,4.8,0.,4.8
1979-07-04 18:28:43.090 ,5,0,0.,4.8,0.,4.8,0.,4.8,0.,4.8
1979-07-04 18:28:47.890 ,6,0,1.,4.8,0.,4.8,0.,4.8,0.,4.8
1979-07-04 18:28:52.690 ,6,0,1.,4.8,0.,4.8,0.,4.8,0.,4.8
1979-07-04 18:28:57.480 ,6,0,0.,4.8,0.,4.8,0.,4.8,0.,4.8
1979-07-04 18:29:02.290 ,6,0,1.,4.8,0.,4.8,0.,4.8,0.,4.8
1979-07-04 18:29:07.090 ,6,0,0.,4.8,0.,4.8,0.,4.8,0.,4.8
1979-07-04 18:29:11.890 ,6,0,2.,4.8,0.,4.8,0.,4.8,0.,4.8
1979-07-04 18:29:16.690 ,6,0,0.,4.8,0.,4.8,0.,4.8,0.,4.8
1979-07-04 18:29:21.480 ,6,0,0.,4.8,0.,4.8,1.,4.8,0.,4.8
1979-07-04 18:29:26.290 ,6,0,1.,4.8,0.,4.8,0.,4.8,0.,4.8
1979-07-04 18:29:31.090 ,6,0,3.,4.8,0.,4.8,0.,4.8,0.,4.8
1979-07-04 18:29:35.890 ,7,0,4.,4.8,0.,4.8,0.,4.8,0.,4.8
1979-07-04 18:29:40.690 ,7,0,3.,4.8,0.,4.8,0.,4.8,0.,4.8
1979-07-04 18:29:45.480 ,7,0,2.,4.8,0.,4.8,0.,4.8,0.,4.8
1979-07-04 18:29:50.290 ,7,0,0.,4.8,0.,4.8,0.,4.8,0.,4.8
1979-07-04 18:29:55.090 ,7,0,1.,4.8,1.,4.8,0.,4.8,0.,4.8
1979-07-04 18:29:59.890 ,7,0,1.,4.8,0.,4.8,0.,4.8,0.,4.8
1979-07-04 18:30:04.690 ,7,0,1.,4.8,0.,4.8,0.,4.8,0.,4.8
1979-07-04 18:30:09.480 ,7,0,2.,4.8,0.,4.8,0.,4.8,0.,4.8
1979-07-04 18:30:14.290 ,7,0,0.,4.8,0.,4.8,0.,4.8,0.,4.8
1979-07-04 18:30:19.090 ,7,0,0.,4.8,0.,4.8,0.,4.8,0.,4.8
1979-07-04 18:30:23.890 ,7,0,0.,4.8,0.,4.8,0.,4.8,0.,4.8
1979-07-04 18:30:28.690 ,7,0,0.,4.8,0.,4.8,0.,4.8,0.,4.8
1979-07-04 18:30:33.480 ,7,0,2.,4.8,0.,4.8,0.,4.8,0.,4.8
1979-07-04 18:30:38.290 ,7,0,1.,4.8,0.,4.8,0.,4.8,0.,4.8
1979-07-04 18:30:43.090 ,7,0,0.,4.8,1.,4.8,1.,4.8,0.,4.8
1979-07-04 18:30:47.890 ,7,0,0.,4.8,0.,4.8,0.,4.8,0.,4.8
1979-07-04 18:30:52.690 ,7,0,0.,4.8,0.,4.8,0.,4.8,0.,4.8
1979-07-04 18:30:57.480 ,7,0,1.,4.8,0.,4.8,0.,4.8,0.,4.8
1979-07-04 18:31:02.290 ,7,0,2.,4.8,0.,4.8,0.,4.8,0.,4.8
1979-07-04 18:31:07.090 ,7,0,1.,4.8,0.,4.8,0.,4.8,0.,4.8
1979-07-04 18:31:11.890 ,6,0,1.,4.8,0.,4.8,0.,4.8,0.,4.8
1979-07-04 18:31:16.690 ,6,0,0.,4.8,0.,4.8,0.,4.8,0.,4.8
1979-07-04 18:31:21.480 ,6,0,1.,4.8,0.,4.8,0.,4.8,0.,4.8
1979-07-04 18:31:26.290 ,6,0,1.,4.8,0.,4.8,0.,4.8,0.,4.8
1979-07-04 18:31:31.090 ,6,0,0.,4.8,0.,4.8,0.,4.8,0.,4.8
1979-07-04 18:31:35.890 ,6,0,2.,4.8,0.,4.8,0.,4.8,0.,4.8
1979-07-04 18:31:40.690 ,6,0,0.,4.8,0.,4.8,0.,4.8,0.,4.8
1979-07-04 18:31:45.480 ,6,0,4.,4.8,0.,4.8,0.,4.8,0.,4.8
1979-07-04 18:31:50.290 ,6,0,0.,4.8,0.,4.8,0.,4.8,0.,4.8
1979-07-04 18:31:55.090 ,6,0,2.,4.8,1.,4.8,0.,4.8,0.,4.8
1979-07-04 18:31:59.890 ,5,0,1.,4.8,0.,4.8,0.,4.8,0.,4.8
1979-07-04 18:32:04.690 ,5,0,3.,4.8,0.,4.8,0.,4.8,0.,4.8
1979-07-04 18:32:09.480 ,5,0,1.,4.8,0.,4.8,0.,4.8,0.,4.8
1979-07-04 18:32:14.290 ,5,0,2.,4.8,0.,4.8,1.,4.8,0.,4.8
1979-07-04 18:32:19.090 ,5,0,3.,4.8,0.,4.8,0.,4.8,0.,4.8
1979-07-04 18:32:23.890 ,5,0,1.,4.8,0.,4.8,0.,4.8,0.,4.8
1979-07-04 18:32:28.690 ,5,0,0.,4.8,0.,4.8,0.,4.8,0.,4.8
1979-07-04 18:32:33.480 ,5,0,3.,4.8,1.,4.8,0.,4.8,0.,4.8
1979-07-04 18:32:38.290 ,5,0,2.,4.8,1.,4.8,0.,4.8,0.,4.8
1979-07-04 18:32:43.090 ,5,0,1.,4.8,1.,4.8,0.,4.8,0.,4.8
1979-07-04 18:32:47.890 ,4,0,1.,4.8,0.,4.8,0.,4.8,0.,4.8
1979-07-04 18:32:52.690 ,4,0,3.,4.8,0.,4.8,0.,4.8,0.,4.8
1979-07-04 18:32:57.480 ,4,0,2.,4.8,0.,4.8,0.,4.8,0.,4.8
1979-07-04 18:33:02.290 ,4,0,1.,4.8,0.,4.8,0.,4.8,0.,4.8
1979-07-04 18:33:07.090 ,4,0,1.,4.8,1.,4.8,0.,4.8,0.,4.8
1979-07-04 18:33:11.890 ,4,0,1.,4.8,0.,4.8,0.,4.8,0.,4.8
1979-07-04 18:33:16.690 ,4,0,2.,4.8,0.,4.8,0.,4.8,0.,4.8